[[{"header":{"parameterUnit":"m.s-1","parameterCategory":1,"la1":30.2991,"la2":30.254,"lo1":-89.0895,"lo2":-89.0444,"dx":0.0017,"dy":0.0017,"nx":28,"ny":28,"refTime":"2023-01-13T09:00:00:Z","depth":0,"parameterNumber":2,"parameterNumberName":"U-component_of_WINDS"},"data":[0,0,0,0,0,0,0,0,0,0,0,0,0,0,0,0,0,0,0,0,0,0,0,0,0,0,0,0,0,0,0,0,0,0,0,0,0,0,0,0,0,0,0,0,0,0,0,0,0,0,0,0,0,0,0,0,0,0,-1.0946,-1.0947,0,-1.1006,-1.1007,-1.1008,-1.0992,-1.0991,-1.099,-1.0989,-1.1051,-1.1054,-1.1056,0,0,0,0,0,0,0,0,0,0,0,0,0,-1.0815,-1.0818,-1.0946,-1.0947,-1.0947,-1.1006,-1.1007,-1.1008,-1.0992,-1.0991,-1.0989,-1.0988,-1.105,-1.1053,-1.1057,0,0,0,0,0,0,0,0,0,0,0,0,0,-1.0873,-1.0818,-1.0946,-1.0947,-1.0947,-1.1006,-1.1007,-1.1008,-1.0993,-1.0991,-1.0989,-1.0987,-1.1049,-1.1053,-1.1057,-1.1119,0,0,-1.107,-1.1072,0,0,0,0,0,0,0,0,-1.087,-1.0878,-1.0946,-1.0947,-1.0948,-1.099,-1.0984,-1.1045,-1.0993,-1.0975,-1.0988,-1.0986,-1.1032,-1.1037,-1.1053,-1.1122,-1.1124,-1.107,-1.1073,-1.1074,-1.1076,0,0,0,0,0,0,0,-1.0866,-1.0876,-1.097,-1.0947,-1.0948,-1.0943,-1.095,-1.0995,-1.1013,-1.0977,-1.0976,-1.0983,-1.1032,-1.1049,-1.1054,-1.1125,-1.107,-1.1074,-1.1076,-1.1078,-1.1245,-1.1247,0,0,0,0,0,0,-1.0861,-1.0872,-1.0968,-1.0972,-1.0904,-1.0947,-1.0954,-1.0978,-1.1013,-1.1016,-1.0985,-1.0982,-1.1043,-1.1049,-1.1056,-1.113,-1.1074,-1.1078,-1.1081,-1.1244,-1.1246,-1.1248,0,0,0,0,0,0,-1.0859,-1.087,-1.0965,-1.0922,-1.0933,-1.0951,-1.0978,-1.098,-1.0997,-1.1018,-1.1021,-1.0999,-1.1041,-1.105,-1.1103,-1.1132,-1.108,-1.1084,-1.1241,-1.1244,-1.1247,-1.1278,0,0,0,0,0,0,-1.0855,-1.0869,-1.0894,-1.0922,-1.0936,-1.1012,-1.098,-1.0983,-1.1004,-1.1001,-1.1032,-1.1036,-1.1041,-1.1097,-1.1107,-1.1136,-1.1087,-1.1239,-1.1243,-1.1246,-1.1274,-1.1281,-1.1287,0,0,0,0,0,-1.085,-1.09,-1.0895,-1.0906,-1.0967,-1.1013,-1.1021,-1.1026,-1.1006,-1.1031,-1.1044,-1.1035,-1.1127,-1.1102,-1.1114,-1.1145,-1.1237,-1.1242,-1.1246,-1.1271,-1.128,-1.1287,0,0,0,0,0,0,-1.0875,-1.0904,-1.0898,-1.0959,-1.0984,-1.1011,-1.1041,-1.1035,-1.1066,-1.1062,-1.1067,-1.1074,-1.1127,-1.1141,-1.1113,-1.1205,-1.1179,-1.1186,-1.1194,-1.1203,-1.1209,-1.1205,-1.1091,0,0,0,0,0,-1.0887,-1.0923,-1.0947,-1.0998,-1.101,-1.1024,-1.1044,-1.1045,-1.1071,-1.1082,-1.1099,-1.1124,-1.1159,-1.1181,-1.1214,-1.1276,-1.1281,-1.1302,-1.1309,-1.1314,-1.132,-1.1352,-1.1361,-1.1262,-1.1262,-1.1262,0,0,-1.0914,-1.0934,-1.0956,-1.1003,-1.1022,-1.1059,-1.1033,-1.1073,-1.1099,-1.1088,-1.1138,-1.1152,-1.118,-1.1236,-1.1262,-1.125,-1.1349,-1.132,-1.1324,-1.1327,-1.1357,-1.1367,-1.1375,-1.1265,-1.1265,-1.1264,0,0,-1.098,-1.0999,-1.1043,-1.1063,-1.1092,-1.11,-1.111,-1.1137,-1.1146,-1.1196,-1.1187,-1.1219,-1.1279,-1.1299,-1.1317,-1.1387,-1.138,-1.1398,-1.1433,-1.1463,-1.1471,-1.1478,-1.1502,-1.1511,-1.1404,-1.1404,-1.1404,0,-1.1009,-1.1064,-1.1067,-1.1107,-1.1127,-1.1117,-1.1161,-1.118,-1.1218,-1.1232,-1.1217,-1.129,-1.1309,-1.1369,-1.1386,-1.1401,-1.1413,-1.1395,-1.147,-1.1477,-1.1483,-1.1506,-1.1516,-1.1406,-1.1406,-1.1405,-1.1405,0,-1.1097,-1.1135,-1.1167,-1.1204,-1.1227,-1.1269,-1.1278,-1.1301,-1.13,-1.1309,-1.1359,-1.1381,-1.1417,-1.1431,-1.1431,-1.1491,-1.1482,-1.1469,-1.1442,-1.1495,-1.1516,-1.1525,-1.1409,-1.1408,-1.1407,-1.1407,0,0,-1.1183,-1.1218,-1.123,-1.1246,-1.1276,-1.1305,-1.1346,-1.138,-1.14,-1.1426,-1.146,-1.1509,-1.1496,-1.1516,-1.1517,-1.1545,-1.1598,-1.1527,-1.1528,-1.1539,-1.1664,-1.1674,-1.1684,-1.1592,-1.1594,-1.1595,-1.1661,0,-1.1251,-1.1323,-1.1326,-1.1391,-1.1425,-1.1415,-1.145,-1.1472,-1.1481,-1.1511,-1.152,-1.1555,-1.1536,-1.1548,-1.1574,-1.1586,-1.1623,-1.1581,-1.1623,-1.1624,-1.1616,-1.1696,-1.1707,-1.1768,-1.167,-1.1671,-1.1672,0,-1.1341,-1.1369,-1.1438,-1.1461,-1.1475,-1.1507,-1.1538,-1.1567,-1.1591,-1.1595,-1.1616,-1.1613,-1.1653,-1.1625,-1.168,-1.1652,-1.1668,-1.1677,-1.1679,-1.1683,-1.1652,-1.1702,-1.1788,-1.1797,-1.1686,-1.1685,-1.1684,0,-1.1396,-1.145,-1.1498,-1.1512,-1.154,-1.1562,-1.1575,-1.1597,-1.1617,-1.1644,-1.1657,-1.1688,-1.1705,-1.1729,-1.1734,-1.1713,-1.1788,-1.1761,-1.1793,-1.1793,-1.181,-1.1808,-1.1899,-1.1821,-1.1821,-1.182,-1.182,0,-1.1472,-1.1514,-1.1522,-1.1552,-1.1598,-1.16,-1.1645,-1.1657,-1.1676,-1.1706,-1.1699,-1.1728,-1.1732,-1.1761,-1.1765,-1.1809,-1.1817,-1.1821,-1.1822,-1.1822,-1.1821,-1.1834,-1.1829,-1.1823,-1.1822,-1.1822,-1.1821,0,-1.1541,-1.1549,-1.1599,-1.1622,-1.1628,-1.1661,-1.168,-1.1707,-1.1714,-1.1753,-1.1762,-1.1774,-1.1808,-1.1814,-1.1855,-1.1857,-1.1909,-1.1906,-1.1901,-1.1901,-1.1932,-1.1929,-1.2034,-1.2047,-1.196,-1.1961,-1.1962,0,-1.1589,-1.1621,-1.1646,-1.1666,-1.168,-1.1712,-1.1732,-1.1734,-1.1755,-1.1783,-1.1807,-1.184,-1.1866,-1.1921,-1.1933,-1.1963,-1.196,-1.1994,-1.1964,-1.1963,-1.1959,-1.1957,-1.196,-1.2,-1.2001,-1.2002,-1.2002,0,-1.1674,-1.1675,-1.1705,-1.1734,-1.1758,-1.1782,-1.1804,-1.1821,-1.1826,-1.1849,-1.1884,-1.1904,-1.1944,-1.1977,-1.2006,-1.2019,-1.2011,-1.2011,-1.202,-1.2021,-1.2017,-1.2018,-1.1917,-1.2009,-1.2009,-1.2008,-1.2008,-1.2007,-1.1734,-1.1761,-1.1782,-1.1814,-1.1831,-1.1852,-1.1878,-1.1888,-1.1916,-1.1949,-1.1948,-1.1986,-1.2006,-1.2045,-1.2059,-1.2088,-1.2077,-1.209,-1.2093,-1.2096,-1.2098,-1.2012,-1.2093,-1.2093,-1.2093,-1.2093,-1.2092,0,-1.1817,-1.183,-1.1859,-1.189,-1.1915,-1.1905,-1.1928,-1.195,-1.1982,-1.2002,-1.2028,-1.2066,-1.2097,-1.211,-1.214,-1.216,-1.2157,-1.2168,-1.2166,-1.2169,-1.2107,-1.2096,-1.2169,-1.2169,-1.2169,-1.2169,-1.2169,-1.2169,-1.1864,-1.1909,-1.1912,-1.1965,-1.1977,-1.2013,-1.2027,-1.2045,-1.2061,-1.2104,-1.2129,-1.2137,-1.2154,-1.2185,-1.2212,-1.2215,-1.2226,-1.2238,-1.2239,-1.2181,-1.2174,-1.2166,-1.2156,-1.224,-1.224,-1.2298,-1.2299,-1.2299]},{"header":{"parameterUnit":"m.s-1","parameterCategory":1,"la1":30.2991,"la2":30.254,"lo1":-89.0895,"lo2":-89.0444,"dx":0.0017,"dy":0.0017,"nx":28,"ny":28,"refTime":"2023-01-13T09:00:00:Z","depth":0,"parameterNumber":3,"parameterNumberName":"V-component_of_WINDS"},"data":[0,0,0,0,0,0,0,0,0,0,0,0,0,0,0,0,0,0,0,0,0,0,0,0,0,0,0,0,0,0,0,0,0,0,0,0,0,0,0,0,0,0,0,0,0,0,0,0,0,0,0,0,0,0,0,0,0,0,-4.1869,-4.1871,0,-4.2021,-4.2023,-4.2025,-4.1979,-4.1976,-4.1973,-4.197,-4.2122,-4.2129,-4.2136,0,0,0,0,0,0,0,0,0,0,0,0,0,-4.1536,-4.1542,-4.1869,-4.1871,-4.1873,-4.2021,-4.2023,-4.2025,-4.198,-4.1976,-4.1972,-4.1968,-4.212,-4.2128,-4.2137,0,0,0,0,0,0,0,0,0,0,0,0,0,-4.1684,-4.1545,-4.1869,-4.1868,-4.187,-4.202,-4.2023,-4.2026,-4.198,-4.1976,-4.1971,-4.1966,-4.2117,-4.2128,-4.2138,-4.2298,0,0,-4.217,-4.2175,0,0,0,0,0,0,0,0,-4.1675,-4.1696,-4.1866,-4.1868,-4.187,-4.1976,-4.1961,-4.2117,-4.1982,-4.1938,-4.197,-4.1964,-4.2077,-4.2091,-4.213,-4.2305,-4.2312,-4.2171,-4.2177,-4.2182,-4.2185,0,0,0,0,0,0,0,-4.1665,-4.1689,-4.1929,-4.1869,-4.1871,-4.1859,-4.1875,-4.1991,-4.2032,-4.1942,-4.1939,-4.1957,-4.2078,-4.212,-4.2133,-4.2314,-4.2171,-4.218,-4.2187,-4.2191,-4.2626,-4.2631,0,0,0,0,0,0,-4.1654,-4.1681,-4.1924,-4.1934,-4.1759,-4.1869,-4.1887,-4.1947,-4.2031,-4.2039,-4.1961,-4.1955,-4.2104,-4.2121,-4.2138,-4.233,-4.2182,-4.2192,-4.2198,-4.2621,-4.2627,-4.2633,0,0,0,0,0,0,-4.1647,-4.1676,-4.1918,-4.1807,-4.1836,-4.188,-4.1948,-4.1953,-4.1995,-4.2046,-4.2053,-4.1997,-4.2101,-4.2123,-4.2258,-4.2335,-4.2196,-4.2206,-4.2615,-4.2623,-4.263,-4.2716,0,0,0,0,0,0,-4.1638,-4.1674,-4.1736,-4.1808,-4.1843,-4.2037,-4.1953,-4.1959,-4.2013,-4.2006,-4.2081,-4.2089,-4.2099,-4.2243,-4.2269,-4.2347,-4.2214,-4.2608,-4.2619,-4.2628,-4.2706,-4.2726,-4.2742,0,0,0,0,0,-4.1626,-4.1754,-4.1739,-4.1769,-4.1921,-4.2042,-4.2061,-4.2071,-4.202,-4.2082,-4.2115,-4.2087,-4.2322,-4.2257,-4.2286,-4.2368,-4.2603,-4.2616,-4.2627,-4.2698,-4.2722,-4.2742,0,0,0,0,0,0,-4.1688,-4.1763,-4.1748,-4.1903,-4.1967,-4.2034,-4.2113,-4.2096,-4.2174,-4.2164,-4.2171,-4.2189,-4.2327,-4.2361,-4.2287,-4.2527,-4.2455,-4.2473,-4.25,-4.2522,-4.254,-4.2529,-4.2223,0,0,0,0,0,-4.172,-4.1813,-4.1873,-4.2004,-4.2036,-4.2069,-4.2122,-4.2124,-4.2189,-4.2216,-4.2258,-4.2322,-4.241,-4.2468,-4.2552,-4.2711,-4.2726,-4.2782,-4.28,-4.2814,-4.283,-4.2915,-4.294,-4.2672,-4.2672,-4.2672,0,0,-4.1787,-4.1839,-4.1897,-4.2018,-4.2067,-4.2161,-4.2092,-4.2195,-4.2265,-4.2231,-4.2361,-4.2395,-4.2466,-4.2614,-4.2681,-4.2646,-4.2907,-4.2829,-4.284,-4.2848,-4.293,-4.2955,-4.2978,-4.268,-4.2679,-4.2677,0,0,-4.1957,-4.2006,-4.212,-4.2171,-4.2247,-4.2268,-4.2295,-4.2365,-4.2386,-4.2517,-4.2494,-4.2576,-4.2728,-4.278,-4.2826,-4.3015,-4.2992,-4.3042,-4.3135,-4.3219,-4.324,-4.3258,-4.3325,-4.3349,-4.3057,-4.3057,-4.3058,0,-4.203,-4.2172,-4.2181,-4.2286,-4.234,-4.2314,-4.2429,-4.2477,-4.2576,-4.2613,-4.2573,-4.2763,-4.281,-4.2968,-4.3014,-4.3053,-4.3083,-4.3033,-4.3236,-4.3255,-4.3273,-4.3336,-4.3361,-4.3063,-4.3062,-4.3062,-4.3061,0,-4.2258,-4.2357,-4.244,-4.2537,-4.26,-4.2709,-4.2733,-4.2795,-4.2792,-4.2816,-4.2949,-4.3004,-4.3098,-4.3136,-4.3133,-4.3295,-4.3271,-4.3234,-4.3162,-4.3304,-4.3363,-4.3388,-4.3071,-4.3069,-4.3067,-4.3066,0,0,-4.2471,-4.2572,-4.2602,-4.2645,-4.2727,-4.2803,-4.2911,-4.3004,-4.3057,-4.3126,-4.3215,-4.3345,-4.3311,-4.3363,-4.3366,-4.3439,-4.3584,-4.3393,-4.3394,-4.3426,-4.3764,-4.3791,-4.3819,-4.3569,-4.3574,-4.3578,-4.3757,0,-4.2648,-4.2839,-4.2849,-4.3022,-4.3113,-4.309,-4.3183,-4.3243,-4.3269,-4.3349,-4.3376,-4.3468,-4.3416,-4.3448,-4.3519,-4.3551,-4.3652,-4.3538,-4.3652,-4.3656,-4.3634,-4.385,-4.388,-4.4047,-4.3781,-4.3785,-4.3788,0,-4.2879,-4.2956,-4.3138,-4.3206,-4.3244,-4.3329,-4.3414,-4.3492,-4.3558,-4.3571,-4.363,-4.3622,-4.3731,-4.3656,-4.3806,-4.3728,-4.3775,-4.3798,-4.3804,-4.3815,-4.373,-4.3866,-4.41,-4.4125,-4.3825,-4.3822,-4.3819,0,-4.3016,-4.3164,-4.3293,-4.333,-4.3413,-4.3473,-4.3509,-4.3571,-4.3626,-4.3701,-4.3736,-4.3822,-4.3869,-4.3935,-4.395,-4.3894,-4.41,-4.4026,-4.4113,-4.4113,-4.4157,-4.4154,-4.4402,-4.4189,-4.4188,-4.4188,-4.4187,0,-4.3211,-4.3323,-4.3355,-4.3434,-4.3558,-4.3569,-4.3691,-4.3724,-4.3779,-4.3863,-4.3847,-4.3926,-4.3941,-4.4023,-4.4035,-4.4156,-4.4178,-4.4191,-4.4193,-4.4192,-4.4191,-4.4223,-4.4211,-4.4194,-4.4193,-4.4192,-4.419,0,-4.3385,-4.3411,-4.3549,-4.3616,-4.3635,-4.3724,-4.378,-4.3855,-4.3879,-4.3985,-4.401,-4.4047,-4.4142,-4.4164,-4.4277,-4.4285,-4.4429,-4.442,-4.4407,-4.4406,-4.4492,-4.4483,-4.4769,-4.4806,-4.4569,-4.4571,-4.4573,0,-4.3508,-4.3594,-4.367,-4.3725,-4.3765,-4.3855,-4.3911,-4.3924,-4.3983,-4.4064,-4.4129,-4.4223,-4.4298,-4.4451,-4.4487,-4.4573,-4.4565,-4.4659,-4.4578,-4.4575,-4.4566,-4.4561,-4.4569,-4.4675,-4.4677,-4.4679,-4.4681,0,-4.3723,-4.3731,-4.3813,-4.3901,-4.3968,-4.4037,-4.4102,-4.4148,-4.417,-4.4237,-4.4335,-4.4393,-4.4508,-4.4601,-4.4687,-4.4724,-4.4706,-4.4706,-4.4731,-4.4731,-4.472,-4.4727,-4.4449,-4.47,-4.4698,-4.4697,-4.4696,-4.4695,-4.3875,-4.3949,-4.4015,-4.4107,-4.4157,-4.4219,-4.4292,-4.4325,-4.4407,-4.4503,-4.4505,-4.4611,-4.4674,-4.4788,-4.483,-4.4912,-4.4883,-4.4919,-4.4928,-4.4936,-4.4944,-4.4708,-4.4928,-4.4927,-4.4927,-4.4927,-4.4926,0,-4.4088,-4.4129,-4.4214,-4.4306,-4.4378,-4.4356,-4.4427,-4.4488,-4.4582,-4.4643,-4.4718,-4.4829,-4.4919,-4.4962,-4.5051,-4.5108,-4.5102,-4.5131,-4.5126,-4.5135,-4.4965,-4.4935,-4.5134,-4.5134,-4.5134,-4.5134,-4.5134,-4.5134,-4.4208,-4.4333,-4.435,-4.4499,-4.4539,-4.4644,-4.4686,-4.4742,-4.4791,-4.4916,-4.4991,-4.5019,-4.5072,-4.5164,-4.5245,-4.5255,-4.5288,-4.5321,-4.5327,-4.5168,-4.5147,-4.5127,-4.5098,-4.5328,-4.5328,-4.549,-4.5491,-4.5492]}]]